Weather History for KOFF - August, 2014

Change the Weather History Date:

Friday, August 15, 2014

  Actual Average Record
Temperature  
Mean Temperature 70 °F -  
Max Temperature 74 °F 81 °F 93 °F (2003)
Min Temperature 67 °F 62 °F 53 °F (2006)
Cooling Degree Days 5    
Growing Degree Days 20 (Base 50)    
Moisture  
Dew Point 70 °F    
Average Humidity 97    
Maximum Humidity 100    
Minimum Humidity 85    
Precipitation  
Precipitation 0.37 in - - ()
Sea Level Pressure  
Sea Level Pressure 29.89 in    
Wind  
Wind Speed 8 mph (ESE)    
Max Wind Speed 15 mph    
Max Gust Speed -    
Visibility 7 miles    
Events Rain    
Averages and records for this station are not official NWS values.
T = Trace of Precipitation, MM = Missing Value Source: NWS Daily Summary

Daily Weather History Graph

Daily Weather History Graph

Search for Another Location

Airport or City:

Trip Planner

Search our weather history database for the weather conditions in past years. The results will help you decide how hot, cold, wet, or windy it might be!

Date:

Astronomy

Aug. 15, 2014 Rise Set
Actual Time 6:33 AM CDT 8:22 PM CDT
Civil Twilight 6:03 AM CDT 8:51 PM CDT
Nautical Twilight 5:27 AM CDT 9:27 PM CDT
Astronomical Twilight 4:48 AM CDT 10:06 PM CDT
Moon 11:21 PM CDT (8/15) 12:20 PM CDT (8/15)
Length of Visible Light 14h 48m
Length of Day
13h 49m
Waning Gibbous, 69% of the Moon is Illuminated
Aug 15
Waning Gibbous
Aug 17
Last Quarter
Aug 25
New
Sep 2
First Quarter
Sep 8
Full

Hourly Weather History & Observations

Time (CDT) Temp. Dew Point Humidity Pressure Visibility Wind Dir Wind Speed Gust Speed Precip Events Conditions
12:58 AM 69.4 °F 67.1 °F 92% 29.95 in 10.0 mi ESE 6.9 mph - N/A   Clear
12:59 AM 69.8 °F 66.2 °F 88% 29.95 in 10.0 mi East 6.9 mph - N/A   Scattered Clouds
1:58 AM 67.6 °F 67.1 °F 98% 29.94 in 10.0 mi ESE 6.9 mph - N/A   Scattered Clouds
2:58 AM 68.7 °F 66.4 °F 92% 29.94 in 10.0 mi ESE 6.9 mph - N/A   Mostly Cloudy
3:58 AM 68.2 °F 66.0 °F 93% 29.93 in 10.0 mi ESE 8.1 mph - N/A   Partly Cloudy
4:58 AM 67.5 °F 66.7 °F 98% 29.92 in 10.0 mi ESE 8.1 mph - N/A   Mostly Cloudy
5:58 AM 68.5 °F 65.7 °F 90% 29.92 in 10.0 mi ESE 10.4 mph - N/A   Mostly Cloudy
6:58 AM 68.0 °F 65.3 °F 91% 29.91 in 10.0 mi SE 6.9 mph - N/A   Clear
7:58 AM 69.4 °F 66.2 °F 89% 29.92 in 10.0 mi ESE 8.1 mph - N/A   Clear
8:58 AM 70.5 °F 66.7 °F 88% 29.94 in 10.0 mi East 10.4 mph - N/A   Clear
9:58 AM 72.1 °F 67.3 °F 85% 29.95 in 10.0 mi East 9.2 mph - N/A   Partly Cloudy
10:58 AM 72.0 °F 67.8 °F 87% 29.96 in 10.0 mi East 10.4 mph - N/A   Mostly Cloudy
11:54 AM 73.4 °F 69.8 °F 88% 29.97 in 10.0 mi SE 13.8 mph - N/A Rain Light Rain
11:58 AM 73.0 °F 69.4 °F 88% 29.96 in 10.0 mi SE 12.7 mph - 0.00 in Rain Light Rain
12:54 PM 73.4 °F 71.6 °F 94% 29.94 in 10.0 mi ESE 12.7 mph - N/A   Partly Cloudy
12:58 PM 72.7 °F 70.7 °F 93% 29.94 in 10.0 mi ESE 11.5 mph - 0.00 in   Partly Cloudy
1:06 PM 73.4 °F 69.8 °F 88% 29.94 in 10.0 mi ESE 11.5 mph - N/A   Light Drizzle
1:28 PM 73.4 °F 71.6 °F 94% 29.92 in 10.0 mi East 10.4 mph - N/A   Clear
1:43 PM 73.4 °F 71.6 °F 94% 29.92 in 10.0 mi ESE 15.0 mph - N/A   Light Drizzle
1:58 PM 73.4 °F 72.1 °F 96% 29.91 in 10.0 mi ESE 11.5 mph - 0.00 in   Light Drizzle
2:02 PM 73.4 °F 71.6 °F 94% 29.92 in 10.0 mi ESE 10.4 mph - N/A   Scattered Clouds
2:58 PM 72.9 °F 72.3 °F 98% 29.91 in 10.0 mi SE 12.7 mph - 0.00 in   Scattered Clouds
3:58 PM 73.4 °F 73.4 °F 100% 29.90 in 10.0 mi SE 9.2 mph - N/A   Mostly Cloudy
4:13 PM 73.4 °F 73.4 °F 100% 29.89 in 10.0 mi SE 11.5 mph - N/A   Mostly Cloudy
4:58 PM 72.5 °F 72.3 °F 99% 29.88 in 10.0 mi ESE 13.8 mph - N/A   Mostly Cloudy
5:03 PM 71.6 °F 71.6 °F 100% 29.88 in 10.0 mi SE 11.5 mph - N/A   Light Drizzle
5:20 PM 71.6 °F 71.6 °F 100% 29.87 in 10.0 mi ESE 10.4 mph - N/A   Scattered Clouds
5:58 PM 71.2 °F 71.2 °F 100% 29.87 in 10.0 mi SSE 9.2 mph - 0.00 in   Mostly Cloudy
6:24 PM 71.6 °F 71.6 °F 100% 29.88 in 9.0 mi SE 8.1 mph - N/A   Light Drizzle
6:34 PM 71.6 °F 71.6 °F 100% 29.88 in 6.0 mi SE 6.9 mph - N/A   Drizzle
6:39 PM 71.6 °F 71.6 °F 100% 29.88 in 5.0 mi SE 6.9 mph - N/A   Drizzle
6:54 PM 69.8 °F 69.8 °F 100% 29.88 in 3.0 mi SE 8.1 mph - N/A   Light Drizzle
6:58 PM 70.5 °F 70.5 °F 100% 29.88 in 3.0 mi SE 8.1 mph - 0.01 in   Drizzle
7:08 PM 69.8 °F 69.8 °F 100% 29.87 in 2.5 mi ESE 8.1 mph - N/A   Light Drizzle
7:13 PM 69.8 °F 69.8 °F 100% 29.87 in 3.0 mi ESE 6.9 mph - N/A   Light Drizzle
7:18 PM 69.8 °F 69.8 °F 100% 29.87 in 3.0 mi ESE 5.8 mph - N/A   Light Drizzle
7:23 PM 69.8 °F 69.8 °F 100% 29.87 in 2.5 mi ESE 5.8 mph - N/A   Light Drizzle
7:25 PM 69.8 °F 69.8 °F 100% 29.87 in 3.0 mi ESE 5.8 mph - N/A   Light Drizzle
7:27 PM 69.8 °F 69.8 °F 100% 29.87 in 3.0 mi ESE 5.8 mph - N/A   Mostly Cloudy
7:32 PM 69.8 °F 69.8 °F 100% 29.86 in 4.0 mi SE 6.9 mph - N/A   Mostly Cloudy
7:37 PM 69.8 °F 69.8 °F 100% 29.86 in 4.0 mi ESE 6.9 mph - N/A   Overcast
7:58 PM 70.0 °F 70.0 °F 100% 29.86 in 6.0 mi ESE 8.1 mph - 0.01 in   Overcast
8:18 PM 69.8 °F 69.8 °F 100% 29.86 in 8.0 mi ESE 6.9 mph - N/A   Overcast
8:58 PM 70.0 °F 70.0 °F 100% 29.86 in 9.0 mi ESE 6.9 mph - N/A   Mostly Cloudy
9:08 PM 69.8 °F 69.8 °F 100% 29.86 in 10.0 mi East 5.8 mph - N/A   Mostly Cloudy
9:33 PM 69.8 °F 69.8 °F 100% 29.87 in 10.0 mi East 3.5 mph - N/A Rain Light Rain
9:58 PM 69.8 °F 69.8 °F 100% 29.86 in 2.5 mi ENE 2.3 mph - 0.05 in Rain Heavy Rain
10:03 PM 69.8 °F 69.8 °F 100% 29.87 in 1.8 mi ENE 2.3 mph - N/A Rain Heavy Rain
10:08 PM 69.8 °F 69.8 °F 100% 29.87 in 1.8 mi ENE 3.5 mph - N/A Rain Rain
10:13 PM 69.8 °F 69.8 °F 100% 29.87 in 2.5 mi NE 4.6 mph - N/A Rain Heavy Rain
10:18 PM 69.8 °F 69.8 °F 100% 29.87 in 2.0 mi ENE 3.5 mph - N/A Rain Heavy Rain
10:23 PM 69.8 °F 69.8 °F 100% 29.87 in 2.0 mi ENE 3.5 mph - N/A Rain Rain
10:28 PM 69.8 °F 69.8 °F 100% 29.87 in 3.0 mi NE 3.5 mph - N/A Rain Heavy Rain
10:33 PM 69.8 °F 69.8 °F 100% 29.87 in 3.0 mi ENE 2.3 mph - N/A Rain Rain
10:37 PM 69.8 °F 69.8 °F 100% 29.87 in 3.0 mi ENE 1.2 mph - N/A Rain Heavy Rain
10:42 PM 69.8 °F 69.8 °F 100% 29.87 in 3.0 mi East 2.3 mph - N/A Rain Heavy Rain
10:47 PM 69.8 °F 69.8 °F 100% 29.86 in 2.5 mi ENE 3.5 mph - N/A Rain Heavy Rain
10:52 PM 69.8 °F 69.8 °F 100% 29.86 in 2.0 mi ENE 3.5 mph - N/A Rain Heavy Rain
10:57 PM 69.8 °F 69.8 °F 100% 29.86 in 2.5 mi ENE 3.5 mph - N/A Rain Heavy Rain
10:58 PM 69.3 °F 69.3 °F 100% 29.86 in 2.5 mi ENE 3.5 mph - 0.24 in Rain Heavy Rain
11:13 PM 69.8 °F 69.8 °F 100% 29.86 in 2.5 mi NE 4.6 mph - N/A Rain Light Rain
11:18 PM 69.8 °F 69.8 °F 100% 29.85 in 3.0 mi NE 4.6 mph - N/A Rain Light Rain
11:23 PM 69.8 °F 69.8 °F 100% 29.85 in 4.0 mi ENE 4.6 mph - N/A Rain Light Rain
11:48 PM 69.8 °F 69.8 °F 100% 29.85 in 6.0 mi ENE 4.6 mph - N/A Rain Light Rain
11:53 PM 69.8 °F 69.8 °F 100% 29.85 in 7.0 mi East 5.8 mph - N/A Rain Rain
11:58 PM 69.1 °F 69.1 °F 100% 29.85 in 8.0 mi East 4.6 mph - 0.06 in Rain Light Rain